Regional Weather Roundup
Issued by NWS Midland/Odessa, TX

Home | Current Version | Previous Version | Text Only | Print | Product List | Glossary On
Versions: 1 2 3 4 5 6 7 8 9 10 11 12 13 14 15 16 17 18 19 20 21 22 23 24 25 26 27 28 29 30 31 32 33 34 35 36 37 38 39 40 41 42 43 44 45 46 47 48 49 50
000
ASUS44 KMAF 250810
RWRMAF
MIDLAND AREA WEATHER ROUNDUP
NATIONAL WEATHER SERVICE MIDLAND TX
200 AM CST SUN FEB 25 2018

...IN SOUTHWEST TEXAS AND SOUTHEAST NEW MEXICO...

CITY           SKY/WX    TMP DP  RH WIND       PRES   REMARKS
ALPINE         CLEAR     40   2  20 S12       30.12F WCI  33
ANDREWS        FAIR      33  15  47 SW6       30.03R WCI  28
ARTESIA        CLEAR     30   5  34 SW8       30.00S WCI  23
BIG SPRING     CLEAR     35  16  45 SE8       30.05R WCI  29
CARLSBAD       CLEAR     34   2  25 S13       29.99F WCI  25
DRYDEN           N/A     47   9  21 N9        30.01S
FORT STOCKTON  CLEAR     44   2  17 SW9       30.05S WCI  39
GUAD PASS      PTCLDY    34   2  25 W18       30.04S WCI  23
HOBBS          CLEAR     28   1  31 W13       30.00F WCI  18
LAMESA         PTSUNNY   32  14  47 S5        30.01R WCI  27
MARFA          CLEAR     40  -1  18 NW10      30.09S WCI  33
MIDLAND AIRPK    N/A     39  14  35 CALM      30.04R
MIDLAND INTL   CLEAR     36  10  34 SW5       30.04R WCI  32
ODESSA         CLOUDY    38   8  29 CALM      30.04R
PECOS          CLOUDY    35   2  25 CALM      30.04S
PRESIDIO       FAIR      49  12  22 NE3       30.08S
SEMINOLE       CLOUDY    31   6  35 NW8       30.01S WCI  23
SNYDER         CLEAR     38  17  41 S8        30.02R WCI  32
WINK           CLOUDY    29   5  36 NW6       30.02S WCI  23
$$
...OTHER STATIONS IN TEXAS...

CITY           SKY/WX    TMP DP  RH WIND       PRES   REMARKS
ABILENE        CLEAR     37  29  72 SE5       30.02S WCI  33
AMARILLO       CLEAR     30   3  31 SW14      29.94F WCI  19
AUSTIN         CLOUDY    60  54  80 N7        29.97S
BROWNSVILLE    CLOUDY    74  72  93 S10       29.91R
CORPUS CHRISTI CLOUDY    70  70 100 SE16      29.87F
DALLAS FTW     PTCLDY    47  43  86 NE3       30.00F
DEL RIO        CLOUDY    55  55 100 NW6       29.98R
EL PASO        CLEAR     42  10  27 SW7       30.05F WCI  38
HOUSTON INT    CLOUDY    73  71  93 S6        29.93F
LUBBOCK        CLEAR     30   7  37 W8        29.98F WCI  22
SAN ANGELO     PTCLDY    40  31  70 W7        30.02S WCI  35
SAN ANTONIO    CLOUDY    63  57  81 N7        29.94F
WACO           PTCLDY    47  45  93 CALM      30.01R FOG
WICHITA FALLS  CLEAR     31  26  82 NW7       29.99F WCI  24
$$
...OTHER LOCATIONS IN NEW MEXICO...

CITY           SKY/WX    TMP DP  RH WIND       PRES   REMARKS
ALAMOGORDO     CLEAR     39   7  26 S9        30.04S WCI  33
ALBUQUERQUE    PTCLDY    27  11  51 E7        29.98F WCI  19
CANNON AFB     CLEAR     38   5  24 W17       29.97F WCI  29
CLOVIS         CLEAR     28   9  44 W12       29.97F WCI  18
HOLLOMAN AFB   CLEAR     38   8  28 SE9       30.06S WCI  32
ROSWELL        CLEAR     31  11  43 NW5       29.97F WCI  26
RUIDOSO        CLEAR     32   0  25 SW20      30.00S WCI  20
SANTA FE       PTCLDY    20   9  62 CALM      29.97R
TRUTH OR CONSE CLEAR     35  12  38 NW6       30.02R WCI  30
TUCUMCARI      CLEAR     29   3  33 W8        29.93S WCI  21
$$



USA.gov is the U.S. government's official web portal to all federal, state and local government web resources and services.